This demonstration page uses our WeatherBlox Daily Observations layout. Learn more.

Left ArrowRight Arrow

38.20091, -84.87328

Hourly Observations for October 3, 2022

Temp ( °F °C ) Dew Point ( °F °C ) Humidity (%) Winds ( mph kmh ) Pressure ( in mb ) Visibility ( mi km ) Precip ( " mm )
12:53 am 00:53 Clear 56 13.3 47 8.3 72 72 NNE 5 7 30.22 1023 10 16 0.00 0.00
1:53 am 01:53 Clear 54 12.2 47 8.3 77 77 NNE 5 7 30.21 1023 10 16 0.00 0.00
2:53 am 02:53 Clear 53 11.7 46 7.8 77 77 NNE 3 6 30.21 1023 10 16 0.00 0.00
3:53 am 03:53 Clear 51 10.6 46 7.8 83 83 N 3 6 30.21 1023 10 16 0.00 0.00
4:53 am 04:53 Clear 50 10 46 7.8 86 86 N 3 6 30.22 1023 10 16 0.00 0.00
5:53 am 05:53 Clear 49 9.4 45 7.2 86 86 N 5 7 30.23 1024 10 16 0.00 0.00
6:53 am 06:53 Clear 48 8.9 45 7.2 89 89 N 3 6 30.25 1024 10 16 0.00 0.00
7:53 am 07:53 Sunny 48 8.9 45 7.2 89 89 N 5 7 30.26 1025 10 16 0.00 0.00
8:53 am 08:53 Sunny 50 10 45 7.2 83 83 NNE 6 9 30.27 1025 10 16 0.00 0.00
9:53 am 09:53 Sunny 54 12.2 46 7.8 74 74 NNE 6 9 30.28 1026 10 16 0.00 0.00
10:53 am 10:53 Sunny 59 15 48 8.9 67 67 VRB 3 6 30.28 1026 10 16 0.00 0.00
11:53 am 11:53 Sunny 63 17.2 50 10 63 63 Calm 30.27 1025 10 16 0.00 0.00
12:53 pm 12:53 Mostly Sunny 66 18.9 50 10 56 56 NE 8 13 30.26 1025 10 16 0.00 0.00
1:53 pm 13:53 Mostly Sunny 69 20.6 46 7.8 44 44 NE 9 15 30.24 1024 10 16 0.00 0.00
2:53 pm 14:53 Sunny 71 21.7 44 6.7 38 38 N 7 11 30.22 1023 10 16 0.00 0.00
3:53 pm 15:53 Sunny 71 21.7 43 6.1 36 36 NNE 9 15 30.21 1023 10 16 0.00 0.00
4:53 pm 16:53 Sunny 71 21.7 42 5.6 35 35 NE 8 13 30.20 1023 10 16 0.00 0.00
5:53 pm 17:53 Sunny 71 21.7 41 5 34 34 NNE 5 7 30.19 1023 10 16 0.00 0.00
6:53 pm 18:53 Sunny 67 19.4 43 6.1 42 42 N 6 9 30.20 1023 10 16 0.00 0.00
7:53 pm 19:53 Clear 63 17.2 43 6.1 48 48 N 3 6 30.21 1023 10 16 0.00 0.00
8:53 pm 20:53 Clear 61 16.1 42 5.6 50 50 Calm 30.21 1023 10 16 0.00 0.00
9:53 pm 21:53 Clear 57 13.9 42 5.6 57 57 N 3 6 30.21 1023 10 16 0.00 0.00
10:53 pm 22:53 Clear 47 8.3 42 5.6 83 83 Calm 30.22 1023 10 16 0.00 0.00
11:53 pm 23:53 Clear 46 7.8 41 5 82 82 ENE 3 6 30.22 1023 10 16 0.00 0.00

Powered by AerisWeather